Location: Gandikunta
(16.3784°N, 80.8378°E)
Time: 19:30:48
(UTC+00:00)

ATLAS 2A CENTAUR R/B - Pass Details

Date: 19 May 2025
Orbit: 242 x 13387 km, 26.9° (Epoch: 21 June)

Event Time Altitude Azimuth Distance (km) Brightness Sun altitude
Rises 13:07:36 0° 242° (WSW) 15,078 9.7 -2.2°
Reaches altitude 10° 13:27:10 10° 242° (WSW) 11,037 9.0 -6.6°
Maximum altitude 13:57:57 83° 158° (SSE) 1,778 4.2 -13.3°
Drops below altitude 10° 14:03:45 10° 70° (ENE) 2,531 4.8 -14.6°
Enters shadow 14:03:55 - 70° (ENE) 2,587 4.8 -14.6°
